Regional Weather Roundup
Issued by NWS

Home | Current Version | Previous Version | Text Only | Print | Product List | Glossary Off
Versions: 1 2 3 4 5 6 7 8 9 10 11 12 13 14 15 16 17 18 19 20 21 22 23 24 25 26 27 28 29 30 31 32 33 34 35 36 37 38 39 40 41 42 43 44 45 46 47 48 49 50

923
ASUS43 KLOT 042208
RWRIL

ILLINOIS REGIONAL WEATHER ROUNDUP
NATIONAL WEATHER SERVICE CHICAGO/ROMEOVILLE IL
400 PM CST SUN DEC 04 2016

NOTE: "FAIR" INDICATES FEW OR NO CLOUDS BELOW 12,000 FEET WITH NO
SIGNIFICANT WEATHER AND/OR OBSTRUCTIONS TO VISIBILITY.

* THESE STATIONS ARE NOT UNDER NWS QUALITY CONTROL. THEY ALSO MAY NOT
  REPORT WEATHER SUCH AS PRECIPITATION OR FOG.

ILZ001-002-007-009-015-016-024-042300-
NORTHWEST ILLINOIS

CITY           SKY/WX    TMP DP  RH WIND       PRES   REMARKS
MOLINE         CLOUDY    33  30  88 S3        29.92R FOG
STERLING*      LGT SNOW  32  30  92 E5        29.92F FOG     WCI  27
SAVANNA*       CLOUDY    31  31  96 S3        29.91S FOG
$$

ILZ003-004-008-010-011-017-018-042300-
NORTH CENTRAL ILLINOIS

CITY           SKY/WX    TMP DP  RH WIND       PRES   REMARKS
ROCKFORD       SNOW      31  29  92 S5        29.93F VSB 1/2 WCI  26
FREEPORT*      LGT SNOW  30  29  97 CALM      29.91F
ROCHELLE*      LGT SNOW  30  30  99 CALM      29.92S VSB 3/4
DE KALB*       LGT SNOW  31  30  97 SE3       29.91S VSB 3/4
$$

ILZ005-006-012>014-019>023-042300-
NORTHEAST ILLINOIS

CITY           SKY/WX    TMP DP  RH WIND       PRES   REMARKS
CHICAGO-OHARE  SNOW      32  31  96 NW3       29.90F VSB 1/4
CHICAGO-MIDWAY SNOW      33  31  92 CALM      29.90R VSB 1/2
AURORA         SNOW      32  31  96 W3        29.93R VSB 1/2
LANSING*       LGT SNOW  32  32 100 CALM      29.89F VSB 3/4
JOLIET*        SNOW      33  33 100 CALM      29.92R VSB 1/2
WAUKEGAN       SNOW      32  32 100 SW3       29.90F VSB 1/4
DUPAGE AIRPORT SNOW      32  29  88 CALM      29.91S VSB 1/2
KANKAKEE*      SNOW      32  32  99 CALM      29.90R VSB 1/2
WHEELING       SNOW      32  31  96 NW5       29.92F VSB 1/2 WCI  27
MORRIS*        SNOW      32  31  96 CALM      29.92R VSB 1/2
ROMEOVILLE*    SNOW      32  32 100 CALM      29.91R VSB 1/2
NORTHERLY ISL    N/A     33  32  96 E6          N/A  WCI  28
$$

LMZ740>746-042300-
SOUTHERN LAKE MICHIGAN

STATION/POSITION SKY/WX   TEMP    WIND        PRES    VSBY  WAVE
                          AIR SEA DIR/SP/G                  HT/PER
                          (F)     (DEG/KT/KT) (MB)    (MI)  (FT/S)
SOUTHERN BUOY              36 48  140/ 16/ 17 1012.5F         3/ 4
HARRISON CRIB              35     110/ 10/ 11   N/A
BURNHAM HARBOR             33     110/  5/ 11   N/A
CALUMET HARBOR             33      90/ 10/ 12 1011.5F
BURNS HARBOR               33      80/  8/  9 1012.5F
$$

ILZ025>027-034>036-040-047-049-050-058-095>099-042300-
WEST-CENTRAL ILLINOIS

CITY           SKY/WX    TMP DP  RH WIND       PRES   REMARKS
QUINCY         CLOUDY    34  33  96 W7        29.94R FOG     WCI  28
GALESBURG*     CLOUDY    32  32  99 CALM      29.92S FOG
MACOMB*        CLOUDY    33  33 100 SW3       29.95S FOG
JACKSONVILLE*  CLOUDY    33  32  96 SW5       29.93F FOG     WCI  28
PITTSFIELD*    CLOUDY    34  33  96 W9        29.96R WCI  27
$$

ILZ028>032-037-038-041>044-048-051>054-059>061-042300-
CENTRAL ILLINOIS

CITY           SKY/WX    TMP DP  RH WIND       PRES   REMARKS
PONTIAC        LGT SNOW  33  33 100 NW6       29.93R VSB 3/4 WCI  27
BLOOMINGTON    LGT SNOW  32  31  96 NW7       29.91R FOG     WCI  26
DECATUR        CLOUDY   N/A N/A N/A CALM      29.91F FOG
PEORIA         CLOUDY    33  33 100 CALM      29.93R FOG
LACON*         LGT RAIN  32  32 100 CALM      29.92R
LINCOLN*       CLOUDY    33  33 100 CALM      29.92S FOG
SPRINGFIELD    CLOUDY    34  32  92 W5        29.93R WCI  30
TAYLORVILLE    CLOUDY    32  32 100 W5        29.93R FOG     WCI  27
$$

ILZ033-039-045-046-055>057-062-063-042300-
EAST-CENTRAL ILLINOIS

CITY           SKY/WX    TMP DP  RH WIND       PRES   REMARKS
CHAMPAIGN      LGT SNOW  33  32  96 S5        29.90R VSB 1   WCI  29
RANTOUL*       LGT SNOW  34  34  99 CALM      29.90R VSB 1
MATTOON        LGT RAIN  37  34  89 W7        29.89S FOG     WCI  32
PARIS*         LGT RAIN  37  37  99 SW3       29.90R
$$

ILZ079-100>102-042300-
SOUTHWEST ILLINOIS

CITY           SKY/WX    TMP DP  RH WIND       PRES   REMARKS
ALTON          CLOUDY    37  36  93 W7        29.95R WCI  32
BELLEVILLE     CLOUDY    40  40  99 W10       29.94S
CAHOKIA*       CLOUDY    41  35  79 W9        29.96R
SPARTA*        CLOUDY    40  37  87 W10G16    29.96S
$$

ILZ064>066-069>071-074>076-080>082-084>086-088>090-092>094-042300-
SOUTH-CENTRAL ILLINOIS

CITY           SKY/WX    TMP DP  RH WIND       PRES   REMARKS
CARBONDALE     CLOUDY    42  40  92 W7        29.95S
CAIRO*         CLOUDY    43  42  95 W10       29.97R
EFFINGHAM*     DRIZZLE   39  39 100 SW7       29.93S WCI  34
MARION         DRIZZLE   43  43 100 SW6       29.96R
CENTRALIA*     CLOUDY    40  39  94 W8        29.92F
SALEM*         CLOUDY    41  38  89 W8        29.92F
METROPOLIS*    CLOUDY    45  44  96 W8        29.97R
$$

ILZ067-068-072-073-078-083-087-091-042300-
SOUTHEAST ILLINOIS

CITY           SKY/WX    TMP DP  RH WIND       PRES   REMARKS
LAWRENCEVILLE  LGT RAIN  43  42  97 SW10      29.92S
FLORA*         CLOUDY    42  39  90 W10       29.93S
FAIRFIELD*     CLOUDY    41  41  99 W3        29.93R
HARRISBURG*    CLOUDY    44  42  92 W14G20    29.96R
ROBINSON*      LGT RAIN  40  39  96 SW7       29.91S
CARMI*         DRIZZLE   44  43  97 W10       29.94R
$$

ABBREVIATIONS USED IN REMARKS
   TC - TEMPERATURE IN CELSIUS
  WCI - WIND CHILL INDEX
   HX - HEAT INDEX
  VSB - VISIBILITY
$$





USA.gov is the U.S. government's official web portal to all federal, state and local government web resources and services.